SWA616 KMCO-MYNN

Flight info

Callsign SWA616
Flight time 0h 48m
Altitude 23000
Route DDANY3 VALKA DCT EBAYY DCT ZFP BR63V ZQA
Aircraft B38M/M-SADE2E3GHIJ4J7P2RWZ/LB1D1

Departure

Time 2026-05-07 09:00
Airport Orlando International Airport (KMCO)

Arrival

Time 2026-05-07 09:49
Airport Lynden Pindling International Airport (MYNN)
Time Latitude Longitude Altitude Speed Heading
2026-05-07 08:37 28.43605 -81.30287 97 ft 0 kts 163°
2026-05-07 08:51 28.43628 -81.30296 96 ft 4 kts 159°
2026-05-07 08:51 28.43652 -81.30309 95 ft 4 kts 145°
2026-05-07 08:51 28.43668 -81.30329 97 ft 4 kts 101°
2026-05-07 08:51 28.43666 -81.30343 97 ft 1 kts 52°
2026-05-07 08:52 28.43664 -81.30345 97 ft 0 kts 52°
2026-05-07 08:56 28.43670 -81.30338 98 ft 3 kts 52°
2026-05-07 08:57 28.43689 -81.30309 97 ft 6 kts 52°
2026-05-07 08:57 28.43721 -81.30262 98 ft 9 kts 52°
2026-05-07 08:57 28.43763 -81.30201 97 ft 11 kts 52°
2026-05-07 08:57 28.43815 -81.30127 98 ft 13 kts 51°
2026-05-07 08:58 28.43823 -81.30021 98 ft 15 kts 102°
2026-05-07 08:58 28.43767 -81.29919 97 ft 17 kts 145°
2026-05-07 08:58 28.43653 -81.29887 99 ft 18 kts 178°
2026-05-07 08:58 28.43563 -81.29878 98 ft 12 kts 142°
2026-05-07 08:59 28.43549 -81.29786 98 ft 13 kts 88°
2026-05-07 08:59 28.43550 -81.29682 99 ft 13 kts 89°
2026-05-07 08:59 28.43525 -81.29597 102 ft 12 kts 159°
2026-05-07 08:59 28.43358 -81.29586 102 ft 52 kts 179°
2026-05-07 09:00 28.42749 -81.29579 98 ft 120 kts 179°
2026-05-07 09:00 28.41732 -81.29568 166 ft 164 kts 179°
2026-05-07 09:00 28.40573 -81.29543 795 ft 171 kts 177°
2026-05-07 09:00 28.39350 -81.29473 1478 ft 179 kts 176°
2026-05-07 09:01 28.38066 -81.29202 1980 ft 201 kts 162°
2026-05-07 09:01 28.36758 -81.28397 2500 ft 226 kts 147°
2026-05-07 09:01 28.35457 -81.27350 3254 ft 233 kts 145°
2026-05-07 09:01 28.34140 -81.26142 3789 ft 254 kts 137°
2026-05-07 09:02 28.32856 -81.24665 4365 ft 270 kts 134°
2026-05-07 09:02 28.31572 -81.23113 5317 ft 269 kts 134°
2026-05-07 09:02 28.30281 -81.21545 6187 ft 273 kts 134°
2026-05-07 09:02 28.28977 -81.19952 6752 ft 277 kts 131°
2026-05-07 09:03 28.27948 -81.18110 7346 ft 277 kts 115°
2026-05-07 09:03 28.27448 -81.15974 8059 ft 287 kts 96°
2026-05-07 09:03 28.27490 -81.13687 8784 ft 291 kts 90°
2026-05-07 09:03 28.27541 -81.11369 9477 ft 297 kts 90°
2026-05-07 09:04 28.27584 -81.09006 10177 ft 302 kts 90°
2026-05-07 09:04 28.27626 -81.06556 10583 ft 320 kts 90°
2026-05-07 09:04 28.27668 -81.03953 10857 ft 339 kts 90°
2026-05-07 09:04 28.27710 -81.01220 11258 ft 352 kts 89°
2026-05-07 09:05 28.27756 -80.98424 11919 ft 356 kts 89°
2026-05-07 09:05 28.27801 -80.95634 12604 ft 361 kts 89°
2026-05-07 09:05 28.27848 -80.92765 13318 ft 366 kts 89°
2026-05-07 09:05 28.27895 -80.89863 14024 ft 371 kts 89°
2026-05-07 09:06 28.27861 -80.86924 14636 ft 376 kts 98°
2026-05-07 09:06 28.27131 -80.84071 15296 ft 379 kts 112°
2026-05-07 09:06 28.26153 -80.81262 15849 ft 387 kts 112°
2026-05-07 09:06 28.25148 -80.78408 16465 ft 392 kts 112°
2026-05-07 09:07 28.24119 -80.75522 17057 ft 397 kts 112°
2026-05-07 09:07 28.23069 -80.72594 17628 ft 403 kts 113°
2026-05-07 09:07 28.21698 -80.69821 18181 ft 405 kts 130°
2026-05-07 09:07 28.19674 -80.67615 18673 ft 405 kts 148°
2026-05-07 09:08 28.17189 -80.66150 19154 ft 403 kts 164°
2026-05-07 09:08 28.14529 -80.65104 19636 ft 407 kts 166°
2026-05-07 09:08 28.11831 -80.64104 20125 ft 410 kts 167°
2026-05-07 09:08 28.09093 -80.63121 20619 ft 414 kts 167°
2026-05-07 09:09 28.06333 -80.62150 21100 ft 418 kts 167°
2026-05-07 09:09 28.03537 -80.61179 21583 ft 421 kts 168°
2026-05-07 09:09 28.00723 -80.60207 22069 ft 425 kts 168°
2026-05-07 09:09 27.97875 -80.59225 22547 ft 429 kts 168°
2026-05-07 09:10 27.95041 -80.58248 22939 ft 434 kts 168°
2026-05-07 09:10 27.92127 -80.57231 23028 ft 444 kts 167°
2026-05-07 09:10 27.89151 -80.56128 23026 ft 455 kts 167°
2026-05-07 09:10 27.86112 -80.55005 23026 ft 464 kts 166°
2026-05-07 09:11 27.83012 -80.53865 23025 ft 472 kts 166°
2026-05-07 09:11 27.79877 -80.52713 23033 ft 475 kts 166°
2026-05-07 09:11 27.76736 -80.51546 23040 ft 476 kts 164°
2026-05-07 09:11 27.73759 -80.49853 23039 ft 484 kts 149°
2026-05-07 09:12 27.71222 -80.47325 23044 ft 490 kts 133°
2026-05-07 09:12 27.69140 -80.44266 23053 ft 492 kts 128°
2026-05-07 09:12 27.67114 -80.41162 23044 ft 492 kts 128°
2026-05-07 09:12 27.65100 -80.38040 23046 ft 492 kts 128°
2026-05-07 09:13 27.63094 -80.34913 23043 ft 492 kts 127°
2026-05-07 09:13 27.61094 -80.31788 23042 ft 492 kts 127°
2026-05-07 09:13 27.59093 -80.28661 23049 ft 492 kts 127°
2026-05-07 09:13 27.57087 -80.25529 23044 ft 493 kts 127°
2026-05-07 09:14 27.55090 -80.22414 23046 ft 499 kts 127°
2026-05-07 09:14 27.53047 -80.19228 23043 ft 503 kts 127°
2026-05-07 09:14 27.50997 -80.16034 23047 ft 503 kts 127°
2026-05-07 09:14 27.49637 -80.13916 23043 ft 505 kts 127°
2026-05-07 09:15 27.47567 -80.10695 23044 ft 508 kts 127°
2026-05-07 09:15 27.45491 -80.07467 23045 ft 506 kts 127°
2026-05-07 09:15 27.43428 -80.04259 23044 ft 506 kts 127°
2026-05-07 09:15 27.41365 -80.01057 23045 ft 505 kts 127°
2026-05-07 09:16 27.39303 -79.97857 23042 ft 505 kts 127°
2026-05-07 09:16 27.37236 -79.94652 23045 ft 505 kts 127°
2026-05-07 09:16 27.35175 -79.91458 23046 ft 505 kts 127°
2026-05-07 09:16 27.33109 -79.88261 23042 ft 505 kts 127°
2026-05-07 09:17 27.31047 -79.85069 23048 ft 504 kts 127°
2026-05-07 09:17 27.28980 -79.81874 23047 ft 504 kts 127°
2026-05-07 09:17 27.26936 -79.78716 23046 ft 504 kts 127°
2026-05-07 09:17 27.24849 -79.75493 23050 ft 504 kts 127°
2026-05-07 09:18 27.22808 -79.72344 23047 ft 504 kts 127°
2026-05-07 09:18 27.20741 -79.69159 23047 ft 503 kts 127°
2026-05-07 09:18 27.18678 -79.65980 23050 ft 503 kts 127°
2026-05-07 09:18 27.16613 -79.62801 23048 ft 503 kts 127°
2026-05-07 09:19 27.14545 -79.59619 23048 ft 503 kts 127°
2026-05-07 09:19 27.12478 -79.56442 23047 ft 503 kts 127°
2026-05-07 09:19 27.10415 -79.53273 23047 ft 503 kts 127°
2026-05-07 09:19 27.08375 -79.50143 23045 ft 503 kts 127°
2026-05-07 09:20 27.06311 -79.46976 23048 ft 502 kts 127°
2026-05-07 09:20 27.04248 -79.43814 23045 ft 502 kts 127°
2026-05-07 09:20 27.02183 -79.40651 23045 ft 502 kts 127°
2026-05-07 09:20 27.00119 -79.37492 23045 ft 502 kts 127°
2026-05-07 09:21 26.98052 -79.34330 23044 ft 502 kts 127°
2026-05-07 09:21 26.95987 -79.31173 23045 ft 502 kts 127°
2026-05-07 09:21 26.93924 -79.28023 23043 ft 502 kts 127°
2026-05-07 09:21 26.91851 -79.24859 23045 ft 502 kts 127°
2026-05-07 09:22 26.89784 -79.21704 23045 ft 502 kts 127°
2026-05-07 09:22 26.87717 -79.18554 23046 ft 502 kts 127°
2026-05-07 09:22 26.85651 -79.15407 23045 ft 502 kts 127°
2026-05-07 09:22 26.83582 -79.12259 23040 ft 502 kts 127°
2026-05-07 09:23 26.81514 -79.09114 23048 ft 502 kts 127°
2026-05-07 09:23 26.79469 -79.06005 23048 ft 502 kts 127°
2026-05-07 09:23 26.77395 -79.02855 23046 ft 502 kts 127°
2026-05-07 09:23 26.75326 -78.99715 23050 ft 502 kts 127°
2026-05-07 09:24 26.73252 -78.96569 23046 ft 502 kts 127°
2026-05-07 09:24 26.71180 -78.93428 23049 ft 502 kts 127°
2026-05-07 09:24 26.69107 -78.90288 23049 ft 502 kts 127°
2026-05-07 09:24 26.67032 -78.87148 23046 ft 502 kts 127°
2026-05-07 09:25 26.64960 -78.84012 23046 ft 502 kts 127°
2026-05-07 09:25 26.62884 -78.80874 23049 ft 502 kts 127°
2026-05-07 09:25 26.60805 -78.77732 23045 ft 502 kts 127°
2026-05-07 09:25 26.58729 -78.74597 23041 ft 501 kts 127°
2026-05-07 09:26 26.56655 -78.71469 23041 ft 501 kts 127°
2026-05-07 09:26 26.54511 -78.68397 23048 ft 501 kts 129°
2026-05-07 09:26 26.52344 -78.65343 23043 ft 501 kts 129°
2026-05-07 09:26 26.50184 -78.62283 23046 ft 501 kts 129°
2026-05-07 09:27 26.48028 -78.59224 23042 ft 501 kts 128°
2026-05-07 09:27 26.45867 -78.56163 23048 ft 501 kts 129°
2026-05-07 09:27 26.41557 -78.50103 23045 ft 501 kts 129°
2026-05-07 09:28 26.39392 -78.47060 23049 ft 501 kts 129°
2026-05-07 09:28 26.37223 -78.44014 23040 ft 501 kts 129°
2026-05-07 09:28 26.35054 -78.40970 23046 ft 501 kts 129°
2026-05-07 09:28 26.32885 -78.37928 23045 ft 501 kts 129°
2026-05-07 09:29 26.30712 -78.34883 23045 ft 501 kts 129°
2026-05-07 09:29 26.28544 -78.31846 23046 ft 501 kts 129°
2026-05-07 09:29 26.26374 -78.28809 23043 ft 501 kts 129°
2026-05-07 09:29 26.24203 -78.25773 23042 ft 501 kts 129°
2026-05-07 09:30 26.22061 -78.22778 23046 ft 501 kts 129°
2026-05-07 09:30 26.19890 -78.19746 23045 ft 500 kts 129°
2026-05-07 09:30 26.17718 -78.16714 23050 ft 500 kts 128°
2026-05-07 09:30 26.15547 -78.13684 23043 ft 500 kts 129°
2026-05-07 09:31 26.13374 -78.10655 23040 ft 500 kts 129°
2026-05-07 09:31 26.11196 -78.07621 23046 ft 500 kts 128°
2026-05-07 09:31 26.09022 -78.04594 23041 ft 500 kts 128°
2026-05-07 09:31 26.06850 -78.01572 23045 ft 500 kts 128°
2026-05-07 09:32 26.04671 -77.98542 23039 ft 500 kts 129°
2026-05-07 09:32 26.02496 -77.95520 23036 ft 500 kts 128°
2026-05-07 09:32 26.00367 -77.92564 23039 ft 486 kts 128°
2026-05-07 09:32 25.98297 -77.89692 23046 ft 467 kts 128°
2026-05-07 09:33 25.96302 -77.86925 23054 ft 450 kts 128°
2026-05-07 09:33 25.94381 -77.84261 22874 ft 438 kts 128°
2026-05-07 09:33 25.92469 -77.81612 22244 ft 439 kts 128°
2026-05-07 09:33 25.90547 -77.78952 21557 ft 442 kts 128°
2026-05-07 09:34 25.88617 -77.76281 20907 ft 443 kts 128°
2026-05-07 09:34 25.86693 -77.73620 20353 ft 439 kts 128°
2026-05-07 09:34 25.84791 -77.70992 19814 ft 432 kts 128°
2026-05-07 09:34 25.82923 -77.68413 19281 ft 426 kts 128°
2026-05-07 09:35 25.81075 -77.65865 18763 ft 421 kts 128°
2026-05-07 09:35 25.79275 -77.63378 18244 ft 416 kts 128°
2026-05-07 09:35 25.77473 -77.60893 17652 ft 411 kts 127°
2026-05-07 09:35 25.75689 -77.58434 17081 ft 406 kts 127°
2026-05-07 09:36 25.73933 -77.56014 16524 ft 400 kts 127°
2026-05-07 09:36 25.72198 -77.53625 15972 ft 395 kts 127°
2026-05-07 09:36 25.70308 -77.51441 15442 ft 392 kts 140°
2026-05-07 09:36 25.67985 -77.49893 14915 ft 389 kts 155°
2026-05-07 09:37 25.65407 -77.49049 14451 ft 385 kts 168°
2026-05-07 09:37 25.62768 -77.48636 14027 ft 378 kts 171°
2026-05-07 09:37 25.60175 -77.48339 13587 ft 371 kts 173°
2026-05-07 09:37 25.57623 -77.48111 13157 ft 363 kts 174°
2026-05-07 09:38 25.55170 -77.47922 12741 ft 354 kts 174°
2026-05-07 09:38 25.52739 -77.47751 12291 ft 346 kts 174°
2026-05-07 09:38 25.50360 -77.47594 11853 ft 339 kts 175°
2026-05-07 09:38 25.48024 -77.47446 11412 ft 333 kts 175°
2026-05-07 09:39 25.45730 -77.47303 10974 ft 327 kts 175°
2026-05-07 09:39 25.43490 -77.47164 10554 ft 319 kts 175°
2026-05-07 09:39 25.41299 -77.47029 10177 ft 311 kts 175°
2026-05-07 09:39 25.39167 -77.46931 9820 ft 302 kts 182°
2026-05-07 09:40 25.37253 -77.47460 9431 ft 295 kts 207°
2026-05-07 09:40 25.35684 -77.48841 9049 ft 286 kts 232°
2026-05-07 09:40 25.34627 -77.50665 8685 ft 278 kts 241°
2026-05-07 09:40 25.33686 -77.52504 8306 ft 271 kts 241°
2026-05-07 09:41 25.32781 -77.54278 7953 ft 266 kts 241°
2026-05-07 09:41 25.31884 -77.56035 7612 ft 259 kts 241°
2026-05-07 09:41 25.31006 -77.57760 7202 ft 256 kts 241°
2026-05-07 09:41 25.30130 -77.59491 6797 ft 252 kts 241°
2026-05-07 09:42 25.29284 -77.61174 6384 ft 248 kts 241°
2026-05-07 09:42 25.28465 -77.62810 5970 ft 244 kts 241°
2026-05-07 09:42 25.27602 -77.64388 5581 ft 235 kts 231°
2026-05-07 09:42 25.26409 -77.65555 5184 ft 227 kts 206°
2026-05-07 09:43 25.24906 -77.65894 4799 ft 219 kts 177°
2026-05-07 09:43 25.23436 -77.65559 4415 ft 214 kts 161°
2026-05-07 09:43 25.22099 -77.64880 4012 ft 210 kts 150°
2026-05-07 09:43 25.20896 -77.63986 3608 ft 207 kts 143°
2026-05-07 09:44 25.19773 -77.62990 3278 ft 207 kts 140°
2026-05-07 09:44 25.18701 -77.61954 2983 ft 203 kts 139°
2026-05-07 09:44 25.17667 -77.60901 2699 ft 200 kts 137°
2026-05-07 09:44 25.16671 -77.59857 2476 ft 194 kts 137°
2026-05-07 09:45 25.15700 -77.58850 2210 ft 188 kts 137°
2026-05-07 09:45 25.14724 -77.57908 1976 ft 185 kts 140°
2026-05-07 09:45 25.13779 -77.56996 1819 ft 180 kts 137°
2026-05-07 09:45 25.12889 -77.56055 1619 ft 174 kts 135°
2026-05-07 09:46 25.12033 -77.55120 1624 ft 171 kts 136°
2026-05-07 09:46 25.11206 -77.54195 1594 ft 165 kts 135°
2026-05-07 09:46 25.10420 -77.53326 1415 ft 160 kts 135°
2026-05-07 09:46 25.09722 -77.52369 1078 ft 164 kts 123°
2026-05-07 09:47 25.08920 -77.51529 918 ft 155 kts 148°
2026-05-07 09:47 25.08103 -77.50811 773 ft 149 kts 132°
2026-05-07 09:47 25.07367 -77.49977 566 ft 153 kts 135°
2026-05-07 09:47 25.06616 -77.49160 403 ft 153 kts 134°
2026-05-07 09:48 25.05875 -77.48336 231 ft 150 kts 135°
2026-05-07 09:48 25.05139 -77.47521 65 ft 149 kts 135°
2026-05-07 09:48 25.04441 -77.46748 24 ft 129 kts 135°
2026-05-07 09:48 25.03916 -77.46163 21 ft 85 kts 135°
2026-05-07 09:49 25.03602 -77.45814 23 ft 43 kts 135°
2026-05-07 09:49 25.03464 -77.45662 21 ft 21 kts 133°
2026-05-07 09:49 25.03474 -77.45568 20 ft 13 kts 45°
2026-05-07 09:49 25.03551 -77.45509 19 ft 14 kts 350°
2026-05-07 09:50 25.03627 -77.45585 19 ft 16 kts 315°
2026-05-07 09:50 25.03708 -77.45675 20 ft 17 kts 315°
2026-05-07 09:50 25.03800 -77.45777 20 ft 20 kts 315°
2026-05-07 09:50 25.03903 -77.45892 20 ft 22 kts 314°
2026-05-07 09:51 25.04016 -77.46019 19 ft 24 kts 314°
2026-05-07 09:51 25.04140 -77.46156 19 ft 26 kts 314°
2026-05-07 09:51 25.04273 -77.46304 19 ft 28 kts 315°
2026-05-07 09:51 25.04414 -77.46461 20 ft 29 kts 314°
2026-05-07 09:52 25.04552 -77.46615 22 ft 27 kts 314°
2026-05-07 09:52 25.04680 -77.46756 20 ft 25 kts 316°
2026-05-07 09:52 25.04790 -77.46873 20 ft 19 kts 314°
2026-05-07 09:52 25.04868 -77.46955 20 ft 13 kts 333°
2026-05-07 09:53 25.04936 -77.46927 20 ft 10 kts 19°
2026-05-07 09:53 25.04981 -77.46885 20 ft 7 kts 32°
2026-05-07 09:53 25.05025 -77.46885 19 ft 5 kts 351°
2026-05-07 09:53 25.05035 -77.46887 19 ft 0 kts 352°
2026-05-07 09:54 25.05036 -77.46887 19 ft 0 kts 352°